| time (UTC) | temp F | wind direction | speed MPH | gust MPH | rain 1hr in | rain 24hr in | rain mn in | humidity % | barometer mb |
| 20260507051259 | 49 | 0.0 | 0.0 | 0.02 | 1.00 | 0.52 | 99 | ||
| 20260507050318 | 49 | 0.0 | 1.0 | 0.04 | 1.00 | 0.52 | 99 | ||
| 20260507045254 | 49 | 0.0 | 0.0 | 0.02 | 0.99 | 0.51 | 99 | ||
| 20260507044233 | 49 | 0.0 | 0.0 | 0.02 | 0.99 | 0.51 | 99 | ||
| 20260507043254 | 49 | 0.0 | 2.0 | 0.02 | 0.98 | 0.50 | 99 | ||
| 20260507042232 | 49 | 0.0 | 1.0 | 0.02 | 0.99 | 0.50 | 99 | ||
| 20260507041253 | 49 | 0.0 | 0.0 | 0.02 | 0.99 | 0.50 | 99 | ||
| 20260507040230 | 49 | 0.0 | 0.0 | 0.01 | 0.98 | 0.48 | 99 | ||
| 20260507035254 | 49 | 0.0 | 1.0 | 0.01 | 0.98 | 0.48 | 99 | ||
| 20260507034231 | 49 | 0.0 | 0.0 | 0.01 | 0.98 | 0.48 | 99 | ||
| 20260507033256 | 49 | 0.0 | 2.0 | 0.00 | 0.97 | 0.47 | 99 | ||
| 20260507032230 | 49 | 0.0 | 1.0 | 0.01 | 0.97 | 0.47 | 99 | ||
| 20260507031254 | 49 | 0.0 | 2.0 | 0.01 | 0.97 | 0.47 | 99 | ||
| 20260507030230 | 50 | 0.0 | 1.0 | 0.01 | 0.97 | 0.47 | 99 | ||
| 20260507025253 | 50 | 315 | 0.0 | 4.0 | 0.02 | 0.97 | 0.47 | 99 | |
| 20260507024231 | 50 | 0.0 | 2.0 | 0.04 | 0.97 | 0.47 | 99 | ||
| 20260507023254 | 50 | 0.0 | 1.0 | 0.04 | 0.97 | 0.47 | 99 | ||
| 20260507022230 | 50 | 0.0 | 2.0 | 0.04 | 0.96 | 0.46 | 99 | ||
| 20260507021257 | 51 | 0.0 | 0.0 | 0.04 | 0.96 | 0.46 | 99 | ||
| 20260507020230 | 51 | 0.0 | 0.0 | 0.05 | 0.96 | 0.46 | 99 | ||
| 20260507015256 | 51 | 0.0 | 0.0 | 0.05 | 0.94 | 0.45 | 99 | ||
| 20260507014232 | 51 | 0.0 | 0.0 | 0.04 | 0.93 | 0.44 | 99 | ||
| 20260507013254 | 51 | 0.0 | 0.0 | 0.04 | 0.93 | 0.44 | 99 | ||
| 20260507012230 | 51 | 0.0 | 1.0 | 0.04 | 0.92 | 0.43 | 99 | ||
| 20260507011254 | 51 | 0.0 | 0.0 | 0.06 | 0.92 | 0.43 | 99 | ||
| 20260507010229 | 51 | 0.0 | 0.0 | 0.07 | 0.91 | 0.41 | 99 | ||
| 20260507005254 | 51 | 0.0 | 0.0 | 0.08 | 0.90 | 0.40 | 98 | ||
| 20260507004230 | 51 | 0.0 | 0.0 | 0.11 | 0.90 | 0.40 | 98 | ||
| 20260507003256 | 50 | 0.0 | 0.0 | 0.13 | 0.90 | 0.40 | 98 | ||
| 20260507002233 | 50 | 0.0 | 0.0 | 0.15 | 0.89 | 0.39 | 98 | ||
| 20260507001259 | 50 | 0.0 | 0.0 | 0.17 | 0.86 | 0.37 | 97 | ||
| 20260507000231 | 50 | 0.0 | 1.0 | 0.18 | 0.84 | 0.34 | 97 | ||
| 20260506235254 | 50 | 0.0 | 1.0 | 0.18 | 0.81 | 0.32 | 97 | ||
| 20260506234234 | 50 | 0.0 | 0.0 | 0.19 | 0.79 | 0.30 | 96 | ||
| 20260506233254 | 51 | 0.0 | 2.0 | 0.19 | 0.77 | 0.27 | 96 | ||
| 20260506232231 | 51 | 0.0 | 1.0 | 0.17 | 0.73 | 0.24 | 96 | ||
| 20260506231255 | 51 | 0.0 | 1.0 | 0.17 | 0.70 | 0.20 | 96 | ||
| 20260506230230 | 51 | 0.0 | 1.0 | 0.15 | 0.66 | 0.17 | 96 | ||
| 20260506225254 | 51 | 0.0 | 2.0 | 0.15 | 0.64 | 0.14 | 96 | ||
| 20260506224230 | 51 | 0.0 | 1.0 | 0.13 | 0.60 | 0.11 | 96 | ||
| 20260506223750 | 52 | 225 | 0.0 | 3.0 | 0.13 | 0.59 | 0.09 | 96 | |
| 20260506222806 | 52 | 0.0 | 2.0 | 0.13 | 0.58 | 0.08 | 96 | ||
| 20260506221743 | 52 | 0.0 | 1.0 | 0.11 | 0.54 | 0.05 | 96 | ||
| 20260506220807 | 52 | 0.0 | 0.0 | 0.11 | 0.52 | 0.02 | 96 | ||
| 20260506215742 | 53 | 0.0 | 0.0 | 0.11 | 0.50 | 0.50 | 96 | ||
| 20260506214807 | 53 | 0.0 | 0.0 | 0.11 | 0.47 | 0.47 | 96 | ||
| 20260506213743 | 53 | 0.0 | 3.0 | 0.12 | 0.46 | 0.46 | 96 | ||
| 20260506212806 | 53 | 0.0 | 0.0 | 0.11 | 0.45 | 0.45 | 96 | ||
| 20260506211743 | 53 | 0.0 | 1.0 | 0.12 | 0.44 | 0.44 | 96 | ||
| 20260506210811 | 54 | 0.0 | 0.0 | 0.13 | 0.41 | 0.41 | 96 | ||
| 20260506205742 | 54 | 0.0 | 0.0 | 0.14 | 0.39 | 0.39 | 96 | ||
| 20260506204808 | 54 | 0.0 | 0.0 | 0.17 | 0.37 | 0.37 | 96 | ||
| 20260506203743 | 54 | 0.0 | 0.0 | 0.15 | 0.34 | 0.34 | 95 | ||
| 20260506202806 | 54 | 0.0 | 0.0 | 0.15 | 0.34 | 0.34 | 95 | ||
| 20260506201743 | 54 | 0.0 | 1.0 | 0.14 | 0.32 | 0.32 | 95 | ||
| 20260506200808 | 54 | 0.0 | 0.0 | 0.12 | 0.30 | 0.28 | 94 | ||
| 20260506195743 | 55 | 0.0 | 0.0 | 0.08 | 0.28 | 0.25 | 91 | ||
| 20260506194806 | 55 | 0.0 | 0.0 | 0.04 | 0.24 | 0.20 | 91 | ||
| 20260506193742 | 55 | 0.0 | 0.0 | 0.04 | 0.22 | 0.19 | 91 | ||
| 20260506192810 | 55 | 0.0 | 0.0 | 0.04 | 0.22 | 0.19 | 90 | ||
| 20260506191743 | 54 | 0.0 | 0.0 | 0.02 | 0.21 | 0.18 | 93 | ||
| 20260506190807 | 54 | 0.0 | 0.0 | 0.01 | 0.21 | 0.17 | 91 | ||
| 20260506185750 | 55 | 0.0 | 0.0 | 0.01 | 0.21 | 0.17 | 90 | ||
| 20260506184806 | 55 | 0.0 | 0.0 | 0.02 | 0.21 | 0.17 | 90 | ||
| 20260506183742 | 55 | 0.0 | 0.0 | 0.01 | 0.20 | 0.15 | 90 | ||
| 20260506182854 | 55 | 0.0 | 0.0 | 0.01 | 0.20 | 0.15 | 90 | ||
| 20260506181743 | 55 | 0.0 | 0.0 | 0.01 | 0.20 | 0.15 | 90 | ||
| 20260506180810 | 55 | 0.0 | 0.0 | 0.02 | 0.20 | 0.15 | 90 | ||
| 20260506175831 | 55 | 0.0 | 0.0 | 0.02 | 0.20 | 0.15 | 89 | ||
| 20260506174808 | 55 | 0.0 | 0.0 | 0.01 | 0.19 | 0.14 | 89 | ||
| 20260506173745 | 55 | 0.0 | 0.0 | 0.02 | 0.19 | 0.14 | 89 | ||
| 20260506172807 | 55 | 0.0 | 0.0 | 0.02 | 0.19 | 0.14 | 89 | ||
| 20260506171743 | 56 | 0.0 | 0.0 | 0.04 | 0.19 | 0.14 | 89 | ||
| 20260506170807 | 56 | 0.0 | 0.0 | 0.04 | 0.18 | 0.13 | 88 | ||
| 20260506165744 | 56 | 0.0 | 0.0 | 0.05 | 0.18 | 0.13 | 88 | ||
| 20260506164809 | 56 | 0.0 | 0.0 | 0.05 | 0.18 | 0.13 | 87 | ||
| 20260506163742 | 56 | 0.0 | 0.0 | 0.05 | 0.17 | 0.12 | 87 | ||
| 20260506162806 | 56 | 0.0 | 0.0 | 0.05 | 0.17 | 0.12 | 87 | ||
| 20260506161745 | 56 | 0.0 | 0.0 | 0.04 | 0.15 | 0.11 | 86 | ||
| 20260506160807 | 56 | 0.0 | 0.0 | 0.04 | 0.14 | 0.09 | 86 | ||
| 20260506155743 | 56 | 0.0 | 0.0 | 0.04 | 0.13 | 0.08 | 85 | ||
| 20260506154807 | 56 | 0.0 | 0.0 | 0.06 | 0.13 | 0.08 | 86 | ||
| 20260506153742 | 56 | 0.0 | 0.0 | 0.06 | 0.13 | 0.07 | 85 | ||
| 20260506152807 | 56 | 0.0 | 0.0 | 0.06 | 0.13 | 0.07 | 84 | ||
| 20260506151743 | 56 | 0.0 | 0.0 | 0.06 | 0.13 | 0.07 | 83 | ||
| 20260506150807 | 56 | 0.0 | 1.0 | 0.05 | 0.12 | 0.06 | 82 | ||
| 20260506145742 | 57 | 0.0 | 1.0 | 0.04 | 0.12 | 0.05 | 81 | ||
| 20260506144807 | 59 | 0.0 | 0.0 | 0.01 | 0.09 | 0.02 | 78 | ||
| 20260506143743 | 60 | 0.0 | 0.0 | 0.00 | 0.08 | 0.01 | 73 | ||
| 20260506142231 | 62 | 0.0 | 0.0 | 0.00 | 0.09 | 0.01 | 66 | ||
| 20260506141255 | 63 | 0.0 | 1.0 | 0.00 | 0.09 | 0.01 | 63 | ||
| 20260506140232 | 63 | 0.0 | 0.0 | 0.00 | 0.09 | 0.01 | 61 | ||
| 20260506135259 | 64 | 0.0 | 1.0 | 0.00 | 0.09 | 0.01 | 58 | ||
| 20260506134231 | 65 | 0.0 | 0.0 | 0.00 | 0.09 | 0.01 | 58 | ||
| 20260506133255 | 65 | 0.0 | 0.0 | 0.00 | 0.09 | 0.01 | 55 | ||
| 20260506132231 | 66 | 0.0 | 0.0 | 0.00 | 0.09 | 0.01 | 55 | ||
| 20260506131255 | 66 | 0.0 | 0.0 | 0.00 | 0.09 | 0.01 | 55 | ||
| 20260506130230 | 67 | 0.0 | 1.0 | 0.00 | 0.09 | 0.01 | 53 | ||
| 20260506125255 | 67 | 0.0 | 0.0 | 0.00 | 0.09 | 0.01 | 52 | ||
| 20260506124230 | 66 | 0.0 | 1.0 | 0.00 | 0.09 | 0.01 | 54 | ||
| 20260506123254 | 66 | 0.0 | 0.0 | 0.00 | 0.09 | 0.01 | 56 | ||
| 20260506122231 | 67 | 0.0 | 0.0 | 0.00 | 0.09 | 0.01 | 53 | ||
| 20260506121256 | 69 | 0.0 | 0.0 | 0.00 | 0.09 | 0.01 | 52 | ||
| 20260506120231 | 70 | 0.0 | 0.0 | 0.00 | 0.09 | 0.01 | 51 | ||
| 20260506115256 | 68 | 0.0 | 0.0 | 0.00 | 0.09 | 0.01 | 50 | ||
| 20260506114231 | 69 | 0.0 | 1.0 | 0.00 | 0.09 | 0.01 | 54 | ||
| 20260506113255 | 67 | 0.0 | 1.0 | 0.00 | 0.09 | 0.01 | 55 | ||
| 20260506112232 | 66 | 0.0 | 0.0 | 0.00 | 0.09 | 0.01 | 56 | ||
| 20260506111256 | 66 | 0.0 | 0.0 | 0.00 | 0.09 | 0.01 | 56 | ||
| 20260506110231 | 67 | 0.0 | 0.0 | 0.00 | 0.09 | 0.01 | 56 | ||
| 20260506105254 | 66 | 0.0 | 1.0 | 0.00 | 0.09 | 0.01 | 57 | ||
| 20260506104232 | 66 | 0.0 | 0.0 | 0.00 | 0.09 | 0.01 | 59 | ||
| 20260506103255 | 65 | 0.0 | 0.0 | 0.00 | 0.09 | 0.01 | 58 | ||
| 20260506102233 | 65 | 0.0 | 0.0 | 0.00 | 0.09 | 0.01 | 55 | ||
| 20260506101258 | 66 | 0.0 | 1.0 | 0.00 | 0.09 | 0.01 | 59 | ||
| 20260506100231 | 66 | 0.0 | 0.0 | 0.00 | 0.09 | 0.01 | 60 | ||
| 20260506095256 | 65 | 0.0 | 0.0 | 0.00 | 0.09 | 0.01 | 58 | ||
| 20260506094233 | 65 | 0.0 | 0.0 | 0.00 | 0.09 | 0.01 | 57 | ||
| 20260506093254 | 66 | 0.0 | 0.0 | 0.00 | 0.09 | 0.01 | 55 | ||
| 20260506092231 | 66 | 0.0 | 0.0 | 0.00 | 0.09 | 0.01 | 59 | ||
| 20260506091256 | 64 | 0.0 | 0.0 | 0.00 | 0.09 | 0.01 | 60 | ||
| 20260506090232 | 65 | 0.0 | 0.0 | 0.00 | 0.09 | 0.01 | 60 | ||
| 20260506085255 | 64 | 0.0 | 0.0 | 0.00 | 0.09 | 0.01 | 60 | ||
| 20260506084231 | 66 | 0.0 | 0.0 | 0.00 | 0.09 | 0.01 | 61 | ||
| 20260506083255 | 64 | 0.0 | 0.0 | 0.00 | 0.09 | 0.01 | 62 | ||
| 20260506082231 | 63 | 0.0 | 0.0 | 0.00 | 0.09 | 0.01 | 67 | ||
| 20260506081255 | 64 | 0.0 | 0.0 | 0.00 | 0.09 | 0.01 | 61 | ||
| 20260506080231 | 66 | 0.0 | 0.0 | 0.00 | 0.09 | 0.01 | 60 | ||
| 20260506073343 | 67 | 0.0 | 0.0 | 0.00 | 0.09 | 0.01 | 58 | ||
| 20260506072232 | 67 | 0.0 | 0.0 | 0.00 | 0.09 | 0.01 | 63 | ||
| 20260506071256 | 65 | 0.0 | 0.0 | 0.00 | 0.09 | 0.01 | 68 | ||
| 20260506070231 | 63 | 0.0 | 0.0 | 0.00 | 0.09 | 0.01 | 75 | ||
| 20260506062230 | 58 | 0.0 | 0.0 | 0.00 | 0.09 | 0.01 | 83 | ||
| 20260506061255 | 57 | 0.0 | 0.0 | 0.00 | 0.09 | 0.01 | 86 | ||
| 20260506060232 | 56 | 0.0 | 0.0 | 0.00 | 0.09 | 0.01 | 89 |